CAPE
nan nan nan nan nan nan nan nan nan nan nan nan nan nan nan nan nan nan 0 nan nan nan nan nan nan nan nan nan 3 3 6 6 8 8 6 4 1 1 0 nan nan nan nan nan nan nan nan nan nan nan nan nan nan nan nan nan nan nan nan nan nan nan 0 1 1 5 9 13 14 14 12 12 7 7 4 5 5 5 7 9 9 9 8 8 8 8
nan nan nan nan nan nan nan nan nan nan nan nan nan nan nan nan nan nan nan nan nan nan nan nan nan nan nan nan 1 1 7 8 7 7 7 4 1 1 nan nan nan nan nan nan nan nan nan nan nan nan nan nan nan nan nan nan nan nan nan nan nan nan nan nan nan nan 1 5 8 8 7 5 3 3 3 4 6 6 8 10 10 9 8 7 7 6
nan nan nan nan nan nan nan nan nan nan nan nan nan nan nan nan nan nan nan nan nan nan nan nan nan nan nan nan 3 3 8 8 8 8 5 2 0 0 nan nan nan nan nan nan nan nan nan nan nan nan nan nan nan nan nan nan nan nan nan nan nan nan nan nan nan nan nan nan 0 0 0 0 0 0 1 3 5 5 7 8 8 7 5 6 6 7
nan nan nan nan nan nan nan nan nan nan nan nan nan nan nan nan nan nan nan nan nan nan nan nan nan nan nan nan nan nan 9 9 7 7 3 1 nan nan nan nan nan nan nan nan nan nan nan nan nan nan nan nan nan nan nan nan nan nan nan nan nan nan nan nan nan nan nan nan nan nan nan nan nan nan nan 0 3 3 3 3 3 3 5 6 6 7
nan nan nan nan nan nan nan nan nan nan nan nan nan nan nan nan nan nan nan nan nan nan nan nan nan nan nan nan nan nan 6 9 3 3 0 nan nan nan nan nan nan nan nan nan nan nan nan nan nan nan nan nan nan nan nan nan nan nan nan nan nan nan nan nan nan nan nan nan nan nan nan nan nan nan nan nan 0 0 1 2 2 2 4 4 4 7
nan nan nan nan nan nan 0 nan nan nan nan nan nan nan nan nan nan nan nan nan nan nan nan nan nan nan nan nan nan nan 0 4 0 0 nan nan nan nan nan nan nan nan nan nan nan nan nan nan nan nan nan nan nan nan nan nan nan nan nan nan nan nan nan nan nan nan nan nan nan nan nan nan nan nan nan nan nan nan 0 1 1 2 3 4 4 6
nan nan nan nan nan nan 0 nan nan nan nan nan nan nan nan nan nan nan nan nan nan nan nan nan nan nan nan nan nan nan nan nan nan nan nan nan nan nan nan nan nan nan nan nan nan nan nan nan nan nan nan nan nan nan nan nan nan nan nan nan nan nan nan nan nan nan nan nan nan nan nan nan nan nan nan nan nan nan nan 0 0 1 2 3 3 5
nan nan nan nan nan 0 nan nan nan nan nan nan nan nan nan nan nan nan nan nan nan nan nan nan nan nan nan nan nan nan nan nan nan nan nan nan nan nan nan nan nan nan nan nan nan nan nan nan nan nan nan nan nan nan nan nan nan nan nan nan nan nan nan nan nan nan nan nan nan nan nan nan nan nan nan nan nan nan 0 1 1 1 1 2 2 3
nan nan nan nan nan nan nan nan nan nan nan nan nan nan nan nan nan nan nan nan nan nan nan nan nan nan nan nan nan nan nan nan nan nan nan nan nan nan nan nan nan nan nan nan nan nan nan nan nan nan nan nan nan nan nan nan nan nan nan nan nan nan nan nan nan nan nan nan nan nan nan nan nan nan nan nan nan nan nan nan nan 0 1 2 2 4
nan nan nan nan nan nan nan nan nan nan nan nan nan nan nan nan nan nan nan nan nan nan nan nan nan nan nan nan nan nan nan nan nan nan nan nan nan nan nan nan nan nan nan nan nan nan nan nan nan nan nan nan nan nan nan nan nan nan nan nan nan nan nan nan nan nan nan nan nan nan nan nan nan nan nan nan nan nan nan nan nan nan 0 1 1 2
nan nan nan nan nan nan nan nan nan nan nan nan nan nan nan nan nan nan nan nan nan nan nan nan nan nan nan nan nan nan nan nan nan nan nan nan nan nan nan nan nan nan nan nan nan nan nan nan nan nan nan nan nan nan nan nan nan nan nan nan nan nan nan 0 0 0 0 nan nan nan nan nan nan nan nan nan nan nan nan nan nan 0 1 1 1 1
nan nan nan nan nan nan nan nan nan nan nan nan nan nan nan nan nan nan nan nan nan nan nan nan nan nan nan nan nan nan nan nan nan nan nan nan nan nan nan nan nan nan nan nan nan nan nan nan nan nan nan nan nan nan nan nan nan nan nan nan nan 0 0 0 0 0 0 0 0 0 0 0 nan nan nan nan nan nan nan 0 0 1 1 1 1 1
nan nan nan nan nan nan nan nan nan nan nan nan nan nan nan nan nan nan nan nan nan nan nan nan nan nan nan nan nan nan nan nan nan nan nan nan nan nan nan nan nan nan nan nan nan nan nan nan nan nan nan nan nan nan nan nan nan nan nan 1 1 1 1 0 0 0 0 0 1 1 1 1 1 1 0 0 0 0 0 1 1 2 2 2 2 2
nan nan nan nan nan nan nan nan nan nan nan nan nan nan nan nan nan nan nan nan nan nan nan nan nan nan nan nan nan nan nan nan nan nan nan nan nan nan nan nan nan nan nan nan nan nan nan nan nan nan nan nan nan nan nan nan nan nan 0 1 1 2 2 1 1 0 0 0 1 1 1 1 2 2 1 1 0 0 1 1 1 2 3 5 5 4
nan nan nan nan nan nan nan nan nan nan nan nan nan nan nan nan nan nan nan nan nan nan nan nan nan nan nan nan nan nan nan nan nan nan nan nan nan nan nan nan nan nan nan nan nan nan nan nan nan nan nan nan nan nan nan 0 0 0 1 1 1 2 1 0 0 0 0 0 0 0 0 1 2 2 2 2 2 2 2 2 2 2 4 7 7 7
nan nan nan nan nan nan nan nan nan nan nan nan nan nan nan nan nan nan nan nan nan nan nan nan nan nan nan nan nan nan nan nan nan nan nan nan nan nan nan nan nan nan nan nan nan nan nan nan nan nan nan nan nan nan nan nan nan 0 1 1 1 2 1 0 0 0 0 0 0 0 0 1 2 2 4 4 3 3 3 3 3 3 4 6 6 8
nan nan nan nan nan nan nan nan nan nan nan nan nan nan nan nan nan nan nan nan nan nan nan nan nan nan nan nan nan nan nan nan nan nan nan nan nan nan nan nan nan nan nan nan nan nan nan nan nan nan nan nan nan nan nan nan nan nan 1 1 1 1 0 1 1 1 0 0 0 0 0 1 1 1 3 4 3 3 3 3 3 3 4 5 5 7
nan nan nan nan nan nan nan nan nan nan nan nan nan nan nan nan nan nan nan nan nan nan nan nan nan nan nan nan nan nan nan nan nan nan nan nan nan nan nan nan nan nan nan nan nan nan nan nan nan nan nan nan nan nan nan nan nan 0 1 1 1 0 0 1 1 2 1 1 1 1 1 0 0 0 1 2 4 4 4 4 4 5 5 6 6 8
nan nan nan nan nan nan nan nan nan nan nan nan nan nan nan nan nan nan nan nan nan nan nan nan nan nan nan nan nan nan nan nan nan nan nan nan nan nan nan nan nan nan nan nan nan nan nan nan nan nan nan nan nan nan nan 0 0 0 1 0 0 nan 0 1 1 1 2 2 2 2 2 1 1 1 0 1 2 2 4 5 5 5 7 8 8 8
nan nan nan nan nan nan nan nan nan nan nan nan nan nan nan nan nan nan nan nan nan nan nan nan nan nan nan nan nan nan nan nan nan nan nan nan nan nan nan nan nan nan nan nan nan nan nan nan nan nan nan nan nan nan 1 0 0 0 nan nan nan nan 0 1 1 1 2 3 3 3 3 2 1 1 1 1 2 2 3 5 5 6 8 10 10 9
nan nan nan nan nan nan nan nan nan nan nan nan nan nan nan nan nan nan nan nan nan nan nan nan nan nan nan nan nan nan nan nan nan nan nan nan nan nan nan nan nan nan nan nan nan nan nan nan nan nan nan nan nan nan 1 0 0 nan nan nan nan nan 0 0 0 1 2 2 2 2 3 3 4 4 4 3 3 3 4 6 6 8 11 13 13 12
nan nan nan nan nan nan nan nan nan nan nan nan nan nan nan nan nan nan nan nan nan nan nan nan nan nan nan nan nan nan nan nan nan nan nan nan nan nan nan nan nan nan nan nan nan nan nan nan nan nan nan nan 0 0 0 nan nan nan 0 0 0 0 0 1 1 1 1 1 1 1 1 2 3 3 3 4 4 4 4 7 7 9 16 15 15 16
nan nan nan nan nan nan nan nan nan nan nan nan nan nan nan nan nan nan nan nan nan nan nan nan nan nan nan nan nan nan nan nan nan nan nan nan nan nan nan nan nan nan nan nan nan nan nan nan nan nan nan nan nan nan 0 0 0 1 1 1 1 1 1 1 1 1 1 1 1 1 1 1 1 1 2 3 4 4 5 7 7 8 13 16 16 18
nan nan nan nan nan nan nan nan nan nan nan nan nan nan nan nan nan nan nan nan nan nan nan nan nan nan nan nan nan nan nan nan nan nan nan nan nan nan nan nan nan nan nan nan nan nan nan nan nan nan nan nan 0 0 1 1 1 1 1 1 1 1 1 0 0 1 1 1 2 2 1 1 1 1 1 1 3 3 3 4 4 5 8 12 12 14
nan nan nan nan nan nan nan nan nan nan nan nan nan nan nan nan nan nan nan nan nan nan nan nan nan nan nan nan nan nan nan nan nan nan nan nan nan nan nan nan nan nan nan nan nan nan nan nan nan nan nan nan nan nan 0 nan nan nan nan nan nan 0 0 0 0 0 1 1 2 2 2 2 2 2 1 1 2 2 3 3 3 4 5 7 7 10
nan nan nan nan nan nan nan nan nan nan nan nan nan nan nan nan nan nan nan nan nan nan nan nan nan nan nan nan nan nan nan nan nan nan nan nan nan nan nan nan nan nan nan nan nan nan nan nan nan nan nan nan nan nan nan nan nan nan nan nan nan nan 0 0 0 0 1 1 2 2 2 2 2 2 2 2 2 2 2 3 3 3 4 5 5 6
nan nan nan nan nan nan nan nan nan nan nan nan nan nan nan nan nan nan nan nan nan nan nan nan nan nan nan nan nan nan nan nan nan nan nan nan nan nan nan nan nan nan nan nan nan nan nan nan nan nan nan nan nan nan nan nan nan nan nan nan nan nan 0 1 1 1 1 2 2 2 2 3 3 3 3 2 2 2 2 3 3 3 4 4 4 6
nan nan nan nan nan nan nan nan nan nan nan nan nan nan nan nan nan nan nan nan nan nan nan nan nan nan nan nan nan nan nan nan nan nan nan nan nan nan nan nan nan nan nan nan nan nan nan nan nan nan nan nan nan nan nan nan nan nan nan nan nan 0 1 1 1 1 1 1 1 1 2 2 2 2 3 2 2 2 3 3 3 4 4 1 1 nan
nan nan nan nan nan nan nan nan nan nan nan nan nan nan nan nan nan nan nan nan nan nan nan nan nan nan nan nan nan nan nan nan nan nan nan nan nan nan nan nan nan nan nan nan nan nan nan nan nan nan nan nan nan nan nan nan nan nan nan nan nan nan nan 0 0 0 0 0 0 0 0 1 1 1 2 2 2 2 3 3 3 4 3 nan nan nan
nan 2 0 nan nan nan nan nan 1 1 0 nan nan nan nan nan nan nan nan nan nan nan nan nan nan nan nan nan nan nan nan nan nan nan nan nan nan nan nan nan nan nan nan nan nan nan nan nan nan nan nan nan nan nan nan nan nan nan nan nan nan nan nan nan nan nan nan nan nan nan nan nan 0 0 1 2 3 3 3 3 3 3 nan nan nan nan
nan nan nan nan nan nan nan nan nan nan 4 13 0 0 nan nan nan nan nan nan nan nan nan nan nan nan nan nan nan nan nan nan nan nan nan nan nan nan nan nan nan nan nan nan nan nan nan nan nan nan nan nan nan nan nan nan nan nan nan nan nan nan nan nan nan nan nan nan nan nan nan nan nan nan 0 0 2 2 3 2 2 1 nan nan nan nan
nan nan nan nan nan nan nan nan nan nan nan nan nan nan nan nan nan nan nan nan nan nan nan nan nan nan nan nan nan nan nan nan nan nan nan nan nan nan nan nan nan nan nan nan nan nan nan nan nan nan nan nan nan nan nan nan nan nan nan nan nan nan nan nan nan nan nan nan nan nan nan nan nan nan 0 1 1 1 3 3 3 3 nan nan nan nan
nan nan nan nan nan nan nan nan nan nan nan nan nan nan nan nan nan nan nan nan nan nan nan nan nan nan nan nan nan nan nan nan nan nan nan nan nan nan nan nan nan nan nan nan nan nan nan nan nan nan nan nan nan nan nan nan nan nan nan nan nan nan nan nan nan nan nan nan nan nan nan nan nan nan nan 0 1 1 3 3 3 4 0 nan nan nan
nan nan nan nan nan nan nan nan nan nan nan nan nan nan nan nan nan nan nan nan nan nan nan nan nan nan nan nan nan nan nan nan nan nan nan nan nan nan nan nan nan nan nan nan nan nan nan nan nan nan nan nan nan nan nan nan nan nan nan nan nan nan nan nan nan nan nan nan nan nan nan nan nan nan nan nan nan nan 0 1 1 2 2 nan nan nan
nan nan nan nan nan nan nan nan nan nan nan nan nan nan nan nan nan nan nan nan nan nan nan nan nan nan nan nan nan nan nan nan nan nan 1 nan nan nan nan nan nan nan nan nan nan nan nan nan nan nan nan nan nan nan nan nan nan nan nan nan nan nan nan nan nan nan nan nan nan nan nan nan nan nan nan nan nan nan nan nan nan 0 0 2 2 nan
nan nan nan nan nan nan nan nan nan nan nan nan nan nan nan nan nan nan nan nan nan nan nan nan nan nan nan nan nan nan nan nan nan nan 0 nan nan nan nan nan nan nan nan nan nan nan nan nan nan nan nan nan nan nan nan nan nan nan nan nan nan nan nan nan nan nan nan nan nan nan nan nan nan nan nan nan nan nan nan nan nan nan 0 0 0 0
nan nan nan nan nan nan nan nan nan nan nan nan nan nan nan nan nan nan nan nan nan nan nan nan nan nan nan nan nan nan nan nan nan nan nan nan nan nan nan nan nan nan nan nan nan nan nan nan nan nan nan nan nan nan nan nan nan nan nan nan nan nan nan nan nan nan nan nan nan nan nan nan nan nan nan nan nan nan nan nan nan nan nan nan nan nan
nan nan nan nan nan nan nan nan nan nan nan nan nan nan nan nan nan nan nan nan nan nan nan nan nan nan nan nan nan nan nan nan nan nan nan nan nan nan nan nan nan nan nan nan nan nan nan nan nan nan nan nan nan nan nan nan nan nan nan nan nan nan nan nan nan nan nan nan nan nan nan nan nan nan nan nan nan nan nan nan nan nan nan nan nan nan
nan nan nan nan nan nan nan nan nan nan nan nan nan nan nan nan nan nan nan nan nan nan nan nan nan nan nan nan nan nan nan nan nan nan nan nan nan nan nan nan nan nan nan nan nan nan nan nan nan nan nan nan nan nan nan nan nan nan nan nan nan nan nan nan nan nan nan nan nan nan nan nan nan nan nan nan nan nan nan nan nan nan nan nan nan nan
nan nan nan nan nan nan nan nan nan nan nan nan nan nan nan nan nan nan nan nan nan nan nan nan nan nan nan nan nan nan nan nan nan nan nan nan nan nan nan nan nan nan nan nan nan nan nan nan nan nan nan nan nan nan nan nan nan nan nan nan nan nan nan nan nan nan nan nan nan nan nan nan nan nan nan nan nan nan nan nan nan nan nan nan nan nan
nan nan nan nan nan nan nan nan nan nan nan nan nan nan nan nan nan nan nan nan nan nan nan nan nan nan nan nan nan nan nan nan nan nan nan nan nan nan nan nan nan nan nan nan nan nan nan nan nan nan nan nan nan nan nan nan nan nan 0 nan nan nan nan nan nan nan nan nan nan nan nan nan nan nan nan nan nan nan nan nan nan nan nan nan nan nan
nan nan nan nan nan nan nan nan nan nan nan nan nan nan nan nan nan nan nan nan nan nan nan nan nan nan nan nan nan nan nan nan nan nan nan nan nan nan nan nan nan nan nan nan nan nan nan nan nan nan nan nan nan nan nan nan nan nan nan nan nan nan nan nan nan nan nan nan nan nan nan nan nan nan nan nan nan nan nan nan nan nan nan nan nan nan
nan nan nan nan nan nan nan nan nan nan nan nan nan nan nan nan nan nan nan nan nan nan nan nan nan nan nan nan nan nan nan nan nan nan nan nan nan nan nan nan nan nan nan nan nan nan nan nan nan nan nan nan nan nan nan nan nan nan nan nan nan nan nan nan nan nan nan nan nan nan nan nan nan nan nan nan nan nan nan nan nan nan nan nan nan nan
nan nan nan nan nan nan nan nan nan nan nan nan nan nan nan nan nan nan nan nan nan nan nan nan nan nan nan nan nan nan nan nan nan nan nan nan nan nan nan nan nan nan nan nan nan nan nan nan nan nan nan nan nan nan nan nan nan nan nan nan nan nan nan nan nan nan nan nan nan nan nan nan nan nan nan nan nan nan nan nan nan nan nan nan nan nan
nan nan nan nan nan nan nan nan nan nan nan nan nan nan nan nan nan nan nan nan nan nan nan nan nan nan nan nan nan nan nan nan nan nan nan nan 1 1 nan nan nan nan nan nan nan nan nan nan nan nan nan nan nan nan nan nan nan nan nan nan nan nan nan nan nan nan nan nan nan nan nan nan nan nan nan nan nan nan nan nan nan nan nan nan nan nan
nan nan nan nan nan nan nan nan nan nan nan nan nan nan nan nan nan nan nan nan nan nan nan nan nan nan nan nan nan nan nan nan nan nan nan nan nan nan nan nan nan nan nan nan nan nan nan nan nan nan nan nan nan nan nan nan nan nan nan nan nan nan nan nan nan nan nan nan nan nan nan nan nan nan nan nan nan nan nan nan nan nan nan nan nan nan
nan nan nan nan nan nan nan nan nan nan nan nan nan nan nan nan nan nan nan nan nan nan nan nan nan nan nan nan nan nan nan nan nan nan nan nan nan nan nan nan nan nan nan nan nan nan nan nan nan nan nan nan nan nan nan nan nan nan nan nan nan nan nan nan nan nan nan nan nan nan nan nan nan nan nan nan nan nan nan nan nan nan nan nan nan nan
nan nan nan nan nan nan nan nan nan nan nan nan nan nan nan nan nan nan nan nan nan nan nan nan nan nan nan nan nan nan nan nan nan nan nan nan nan nan nan nan nan nan nan nan nan nan nan nan nan nan nan nan nan nan nan nan nan nan nan nan nan nan nan nan nan nan nan nan nan nan nan nan nan nan nan nan nan nan nan nan nan nan nan nan nan nan
nan nan nan nan nan nan nan nan nan nan nan nan nan nan nan nan nan nan nan nan nan nan nan nan nan nan nan nan nan nan nan nan nan nan nan nan nan nan nan nan nan 0 nan nan nan nan nan nan nan nan nan nan nan nan nan nan nan nan nan nan nan nan nan nan nan nan nan nan nan nan nan nan nan nan nan nan nan nan nan nan nan nan nan nan nan nan
nan nan nan nan nan nan nan nan nan nan nan nan nan nan nan nan nan nan nan nan nan nan nan nan nan nan nan nan nan nan nan nan nan nan nan nan nan nan nan nan nan 0 0 nan nan nan nan nan nan 0 3 nan nan nan nan nan nan nan nan nan nan nan nan nan nan nan nan nan nan nan nan nan nan nan nan nan nan nan nan nan nan nan nan nan nan nan
nan nan nan nan nan nan nan nan nan nan nan nan nan nan nan nan nan nan nan nan nan nan nan nan nan nan nan nan nan nan nan nan nan nan nan nan nan nan nan nan nan nan nan nan nan nan nan nan nan nan 4 11 0 0 nan nan nan nan nan nan nan nan nan nan nan nan nan nan nan nan nan nan nan nan nan nan nan nan nan nan nan nan nan nan nan nan
CIN
nan nan nan nan nan nan nan nan nan nan nan nan nan nan nan nan nan nan -0 nan nan nan nan nan nan nan nan nan -9 -9 -0 -0 -0 -0 -0 -0 -0 -0 -0 nan nan nan nan nan nan nan nan nan nan nan nan nan nan nan nan nan nan nan nan nan nan nan -0 -0 -0 -0 -0 -0 -0 -0 -0 -0 -0 -0 -0 -0 -0 -0 -0 -0 -0 -0 -0 -0 -0 -0
nan nan nan nan nan nan nan nan nan nan nan nan nan nan nan nan nan nan nan nan nan nan nan nan nan nan nan nan -18 -18 -0 -0 -0 -0 -0 -0 -0 -0 nan nan nan nan nan nan nan nan nan nan nan nan nan nan nan nan nan nan nan nan nan nan nan nan nan nan nan nan -0 -0 -0 -0 -0 -0 -0 -0 -0 -0 -0 -0 -0 -0 -0 -0 -0 -0 -0 -0
nan nan nan nan nan nan nan nan nan nan nan nan nan nan nan nan nan nan nan nan nan nan nan nan nan nan nan nan -0 -0 -0 -0 -0 -0 -0 -0 -0 -0 nan nan nan nan nan nan nan nan nan nan nan nan nan nan nan nan nan nan nan nan nan nan nan nan nan nan nan nan nan nan -0 -0 -0 -0 -1 -1 -0 -0 -0 -0 -0 -0 -0 -0 -0 -0 -0 -0
nan nan nan nan nan nan nan nan nan nan nan nan nan nan nan nan nan nan nan nan nan nan nan nan nan nan nan nan nan nan -0 -0 -0 -0 -0 -0 nan nan nan nan nan nan nan nan nan nan nan nan nan nan nan nan nan nan nan nan nan nan nan nan nan nan nan nan nan nan nan nan nan nan nan nan nan nan nan -0 -0 -0 -0 -0 -0 -0 -0 -0 -0 -0
nan nan nan nan nan nan nan nan nan nan nan nan nan nan nan nan nan nan nan nan nan nan nan nan nan nan nan nan nan nan -5 -0 -0 -0 -0 nan nan nan nan nan nan nan nan nan nan nan nan nan nan nan nan nan nan nan nan nan nan nan nan nan nan nan nan nan nan nan nan nan nan nan nan nan nan nan nan nan -0 -0 -0 -0 -0 -0 -0 -0 -0 -0
nan nan nan nan nan nan -0 nan nan nan nan nan nan nan nan nan nan nan nan nan nan nan nan nan nan nan nan nan nan nan -24 -0 -0 -0 nan nan nan nan nan nan nan nan nan nan nan nan nan nan nan nan nan nan nan nan nan nan nan nan nan nan nan nan nan nan nan nan nan nan nan nan nan nan nan nan nan nan nan nan -0 -0 -0 -0 -0 -0 -0 -0
nan nan nan nan nan nan -0 nan nan nan nan nan nan nan nan nan nan nan nan nan nan nan nan nan nan nan nan nan nan nan nan nan nan nan nan nan nan nan nan nan nan nan nan nan nan nan nan nan nan nan nan nan nan nan nan nan nan nan nan nan nan nan nan nan nan nan nan nan nan nan nan nan nan nan nan nan nan nan nan -0 -0 -0 -0 -0 -0 -0
nan nan nan nan nan -0 nan nan nan nan nan nan nan nan nan nan nan nan nan nan nan nan nan nan nan nan nan nan nan nan nan nan nan nan nan nan nan nan nan nan nan nan nan nan nan nan nan nan nan nan nan nan nan nan nan nan nan nan nan nan nan nan nan nan nan nan nan nan nan nan nan nan nan nan nan nan nan nan -0 -0 -0 -0 -0 -0 -0 -0
nan nan nan nan nan nan nan nan nan nan nan nan nan nan nan nan nan nan nan nan nan nan nan nan nan nan nan nan nan nan nan nan nan nan nan nan nan nan nan nan nan nan nan nan nan nan nan nan nan nan nan nan nan nan nan nan nan nan nan nan nan nan nan nan nan nan nan nan nan nan nan nan nan nan nan nan nan nan nan nan nan -0 -0 -0 -0 -0
nan nan nan nan nan nan nan nan nan nan nan nan nan nan nan nan nan nan nan nan nan nan nan nan nan nan nan nan nan nan nan nan nan nan nan nan nan nan nan nan nan nan nan nan nan nan nan nan nan nan nan nan nan nan nan nan nan nan nan nan nan nan nan nan nan nan nan nan nan nan nan nan nan nan nan nan nan nan nan nan nan nan -0 -0 -0 -0
nan nan nan nan nan nan nan nan nan nan nan nan nan nan nan nan nan nan nan nan nan nan nan nan nan nan nan nan nan nan nan nan nan nan nan nan nan nan nan nan nan nan nan nan nan nan nan nan nan nan nan nan nan nan nan nan nan nan nan nan nan nan nan -0 -0 -0 -0 nan nan nan nan nan nan nan nan nan nan nan nan nan nan -0 -0 -0 -0 -0
nan nan nan nan nan nan nan nan nan nan nan nan nan nan nan nan nan nan nan nan nan nan nan nan nan nan nan nan nan nan nan nan nan nan nan nan nan nan nan nan nan nan nan nan nan nan nan nan nan nan nan nan nan nan nan nan nan nan nan nan nan -0 -0 -0 -0 -0 -0 -0 -0 -0 -0 -0 nan nan nan nan nan nan nan -0 -0 -0 -0 -0 -0 -0
nan nan nan nan nan nan nan nan nan nan nan nan nan nan nan nan nan nan nan nan nan nan nan nan nan nan nan nan nan nan nan nan nan nan nan nan nan nan nan nan nan nan nan nan nan nan nan nan nan nan nan nan nan nan nan nan nan nan nan -0 -0 -0 -0 -0 -0 -0 -0 -0 -0 -0 -0 -0 -0 -0 -0 -0 -0 -0 -0 -0 -0 -0 -0 -0 -0 -0
nan nan nan nan nan nan nan nan nan nan nan nan nan nan nan nan nan nan nan nan nan nan nan nan nan nan nan nan nan nan nan nan nan nan nan nan nan nan nan nan nan nan nan nan nan nan nan nan nan nan nan nan nan nan nan nan nan nan -0 -0 -0 -0 -0 -0 -0 -0 -0 -0 -0 -0 -0 -0 -0 -0 -0 -0 -0 -0 -0 -0 -0 -0 -0 -0 -0 -0
nan nan nan nan nan nan nan nan nan nan nan nan nan nan nan nan nan nan nan nan nan nan nan nan nan nan nan nan nan nan nan nan nan nan nan nan nan nan nan nan nan nan nan nan nan nan nan nan nan nan nan nan nan nan nan -12 -12 -0 -0 -0 -0 -0 -0 -0 -0 -0 -0 -0 -0 -0 -0 -0 -0 -0 -0 -0 -0 -0 -0 -0 -0 -0 -0 -0 -0 -0
nan nan nan nan nan nan nan nan nan nan nan nan nan nan nan nan nan nan nan nan nan nan nan nan nan nan nan nan nan nan nan nan nan nan nan nan nan nan nan nan nan nan nan nan nan nan nan nan nan nan nan nan nan nan nan nan nan -0 -0 -0 -0 -0 -0 -0 -0 -0 -0 -0 -0 -0 -0 -0 -0 -0 -0 -0 -0 -0 -0 -0 -0 -0 -0 -0 -0 -0
nan nan nan nan nan nan nan nan nan nan nan nan nan nan nan nan nan nan nan nan nan nan nan nan nan nan nan nan nan nan nan nan nan nan nan nan nan nan nan nan nan nan nan nan nan nan nan nan nan nan nan nan nan nan nan nan nan nan -0 -0 -0 -0 -0 -0 -0 -0 -0 -0 -0 -0 -0 -0 -0 -0 -0 -0 -0 -0 -0 -0 -0 -0 -0 -0 -0 -0
nan nan nan nan nan nan nan nan nan nan nan nan nan nan nan nan nan nan nan nan nan nan nan nan nan nan nan nan nan nan nan nan nan nan nan nan nan nan nan nan nan nan nan nan nan nan nan nan nan nan nan nan nan nan nan nan nan -0 -0 -0 -0 -0 -0 -0 -0 -0 -0 -0 -0 -0 -0 -0 -0 -0 -0 -0 -0 -0 -0 -0 -0 -0 -0 -0 -0 -0
nan nan nan nan nan nan nan nan nan nan nan nan nan nan nan nan nan nan nan nan nan nan nan nan nan nan nan nan nan nan nan nan nan nan nan nan nan nan nan nan nan nan nan nan nan nan nan nan nan nan nan nan nan nan nan -0 -0 -0 -0 -0 -0 nan -0 -0 -0 -0 -0 -0 -0 -0 -0 -0 -0 -0 -0 -0 -0 -0 -0 -0 -0 -0 -0 -0 -0 -0
nan nan nan nan nan nan nan nan nan nan nan nan nan nan nan nan nan nan nan nan nan nan nan nan nan nan nan nan nan nan nan nan nan nan nan nan nan nan nan nan nan nan nan nan nan nan nan nan nan nan nan nan nan nan -0 -0 -0 -0 nan nan nan nan -0 -0 -0 -0 -0 -0 -0 -0 -0 -0 -0 -0 -0 -0 -0 -0 -0 -0 -0 -0 -0 -0 -0 -0
nan nan nan nan nan nan nan nan nan nan nan nan nan nan nan nan nan nan nan nan nan nan nan nan nan nan nan nan nan nan nan nan nan nan nan nan nan nan nan nan nan nan nan nan nan nan nan nan nan nan nan nan nan nan -0 -0 -0 nan nan nan nan nan -0 -0 -0 -0 -0 -0 -0 -0 -0 -0 -0 -0 -0 -0 -0 -0 -0 -0 -0 -0 -0 -0 -0 -0
nan nan nan nan nan nan nan nan nan nan nan nan nan nan nan nan nan nan nan nan nan nan nan nan nan nan nan nan nan nan nan nan nan nan nan nan nan nan nan nan nan nan nan nan nan nan nan nan nan nan nan nan -0 -0 -0 nan nan nan -0 -0 -0 -0 -0 -0 -0 -0 -0 -0 -0 -0 -0 -0 -0 -0 -0 -0 -0 -0 -0 -0 -0 -0 -0 -0 -0 -0
nan nan nan nan nan nan nan nan nan nan nan nan nan nan nan nan nan nan nan nan nan nan nan nan nan nan nan nan nan nan nan nan nan nan nan nan nan nan nan nan nan nan nan nan nan nan nan nan nan nan nan nan nan nan -0 -0 -0 -0 -0 -0 -0 -0 -0 -0 -0 -0 -0 -0 -0 -0 -0 -0 -0 -0 -0 -0 -0 -0 -0 -0 -0 -0 -0 -0 -0 -0
nan nan nan nan nan nan nan nan nan nan nan nan nan nan nan nan nan nan nan nan nan nan nan nan nan nan nan nan nan nan nan nan nan nan nan nan nan nan nan nan nan nan nan nan nan nan nan nan nan nan nan nan -16 -16 -0 -0 -0 -0 -0 -0 -0 -0 -0 -0 -0 -0 -0 -0 -0 -0 -0 -0 -0 -0 -0 -0 -0 -0 -0 -0 -0 -0 -0 -0 -0 -0
nan nan nan nan nan nan nan nan nan nan nan nan nan nan nan nan nan nan nan nan nan nan nan nan nan nan nan nan nan nan nan nan nan nan nan nan nan nan nan nan nan nan nan nan nan nan nan nan nan nan nan nan nan nan -0 nan nan nan nan nan nan -0 -0 -0 -0 -0 -0 -0 -0 -0 -0 -0 -0 -0 -0 -0 -0 -0 -0 -0 -0 -0 -0 -0 -0 -0
nan nan nan nan nan nan nan nan nan nan nan nan nan nan nan nan nan nan nan nan nan nan nan nan nan nan nan nan nan nan nan nan nan nan nan nan nan nan nan nan nan nan nan nan nan nan nan nan nan nan nan nan nan nan nan nan nan nan nan nan nan nan -0 -0 -0 -0 -0 -0 -0 -0 -0 -0 -0 -0 -0 -0 -0 -0 -0 -0 -0 -0 -0 -0 -0 -0
nan nan nan nan nan nan nan nan nan nan nan nan nan nan nan nan nan nan nan nan nan nan nan nan nan nan nan nan nan nan nan nan nan nan nan nan nan nan nan nan nan nan nan nan nan nan nan nan nan nan nan nan nan nan nan nan nan nan nan nan nan nan -0 -0 -0 -0 -0 -0 -0 -0 -0 -0 -0 -0 -0 -0 -0 -0 -0 -0 -0 -0 -0 -0 -0 -0
nan nan nan nan nan nan nan nan nan nan nan nan nan nan nan nan nan nan nan nan nan nan nan nan nan nan nan nan nan nan nan nan nan nan nan nan nan nan nan nan nan nan nan nan nan nan nan nan nan nan nan nan nan nan nan nan nan nan nan nan nan -0 -0 -0 -0 -0 -0 -0 -0 -0 -0 -0 -0 -0 -0 -0 -0 -0 -0 -0 -0 -0 -0 -9 -9 nan
nan nan nan nan nan nan nan nan nan nan nan nan nan nan nan nan nan nan nan nan nan nan nan nan nan nan nan nan nan nan nan nan nan nan nan nan nan nan nan nan nan nan nan nan nan nan nan nan nan nan nan nan nan nan nan nan nan nan nan nan nan nan nan -0 -0 -0 -0 -0 -0 -0 -0 -0 -0 -0 -0 -0 -0 -0 -0 -0 -0 -0 -2 nan nan nan
nan -0 -4 nan nan nan nan nan -0 -0 -0 nan nan nan nan nan nan nan nan nan nan nan nan nan nan nan nan nan nan nan nan nan nan nan nan nan nan nan nan nan nan nan nan nan nan nan nan nan nan nan nan nan nan nan nan nan nan nan nan nan nan nan nan nan nan nan nan nan nan nan nan nan -0 -0 -0 -0 -0 -0 -0 -0 -0 -0 nan nan nan nan
nan nan nan nan nan nan nan nan nan nan -1 -0 -0 -0 nan nan nan nan nan nan nan nan nan nan nan nan nan nan nan nan nan nan nan nan nan nan nan nan nan nan nan nan nan nan nan nan nan nan nan nan nan nan nan nan nan nan nan nan nan nan nan nan nan nan nan nan nan nan nan nan nan nan nan nan -0 -0 -0 -0 -0 -0 -0 -11 nan nan nan nan
nan nan nan nan nan nan nan nan nan nan nan nan nan nan nan nan nan nan nan nan nan nan nan nan nan nan nan nan nan nan nan nan nan nan nan nan nan nan nan nan nan nan nan nan nan nan nan nan nan nan nan nan nan nan nan nan nan nan nan nan nan nan nan nan nan nan nan nan nan nan nan nan nan nan -0 -0 -0 -0 -0 -0 -0 -0 nan nan nan nan
nan nan nan nan nan nan nan nan nan nan nan nan nan nan nan nan nan nan nan nan nan nan nan nan nan nan nan nan nan nan nan nan nan nan nan nan nan nan nan nan nan nan nan nan nan nan nan nan nan nan nan nan nan nan nan nan nan nan nan nan nan nan nan nan nan nan nan nan nan nan nan nan nan nan nan -0 -0 -0 -0 -0 -0 -0 -14 nan nan nan
nan nan nan nan nan nan nan nan nan nan nan nan nan nan nan nan nan nan nan nan nan nan nan nan nan nan nan nan nan nan nan nan nan nan nan nan nan nan nan nan nan nan nan nan nan nan nan nan nan nan nan nan nan nan nan nan nan nan nan nan nan nan nan nan nan nan nan nan nan nan nan nan nan nan nan nan nan nan -0 -0 -0 -0 -0 nan nan nan
nan nan nan nan nan nan nan nan nan nan nan nan nan nan nan nan nan nan nan nan nan nan nan nan nan nan nan nan nan nan nan nan nan nan -0 nan nan nan nan nan nan nan nan nan nan nan nan nan nan nan nan nan nan nan nan nan nan nan nan nan nan nan nan nan nan nan nan nan nan nan nan nan nan nan nan nan nan nan nan nan nan -0 -0 -0 -0 nan
nan nan nan nan nan nan nan nan nan nan nan nan nan nan nan nan nan nan nan nan nan nan nan nan nan nan nan nan nan nan nan nan nan nan -2 nan nan nan nan nan nan nan nan nan nan nan nan nan nan nan nan nan nan nan nan nan nan nan nan nan nan nan nan nan nan nan nan nan nan nan nan nan nan nan nan nan nan nan nan nan nan nan -0 -0 -0 -3
nan nan nan nan nan nan nan nan nan nan nan nan nan nan nan nan nan nan nan nan nan nan nan nan nan nan nan nan nan nan nan nan nan nan nan nan nan nan nan nan nan nan nan nan nan nan nan nan nan nan nan nan nan nan nan nan nan nan nan nan nan nan nan nan nan nan nan nan nan nan nan nan nan nan nan nan nan nan nan nan nan nan nan nan nan nan
nan nan nan nan nan nan nan nan nan nan nan nan nan nan nan nan nan nan nan nan nan nan nan nan nan nan nan nan nan nan nan nan nan nan nan nan nan nan nan nan nan nan nan nan nan nan nan nan nan nan nan nan nan nan nan nan nan nan nan nan nan nan nan nan nan nan nan nan nan nan nan nan nan nan nan nan nan nan nan nan nan nan nan nan nan nan
nan nan nan nan nan nan nan nan nan nan nan nan nan nan nan nan nan nan nan nan nan nan nan nan nan nan nan nan nan nan nan nan nan nan nan nan nan nan nan nan nan nan nan nan nan nan nan nan nan nan nan nan nan nan nan nan nan nan nan nan nan nan nan nan nan nan nan nan nan nan nan nan nan nan nan nan nan nan nan nan nan nan nan nan nan nan
nan nan nan nan nan nan nan nan nan nan nan nan nan nan nan nan nan nan nan nan nan nan nan nan nan nan nan nan nan nan nan nan nan nan nan nan nan nan nan nan nan nan nan nan nan nan nan nan nan nan nan nan nan nan nan nan nan nan nan nan nan nan nan nan nan nan nan nan nan nan nan nan nan nan nan nan nan nan nan nan nan nan nan nan nan nan
nan nan nan nan nan nan nan nan nan nan nan nan nan nan nan nan nan nan nan nan nan nan nan nan nan nan nan nan nan nan nan nan nan nan nan nan nan nan nan nan nan nan nan nan nan nan nan nan nan nan nan nan nan nan nan nan nan nan -0 nan nan nan nan nan nan nan nan nan nan nan nan nan nan nan nan nan nan nan nan nan nan nan nan nan nan nan
nan nan nan nan nan nan nan nan nan nan nan nan nan nan nan nan nan nan nan nan nan nan nan nan nan nan nan nan nan nan nan nan nan nan nan nan nan nan nan nan nan nan nan nan nan nan nan nan nan nan nan nan nan nan nan nan nan nan nan nan nan nan nan nan nan nan nan nan nan nan nan nan nan nan nan nan nan nan nan nan nan nan nan nan nan nan
nan nan nan nan nan nan nan nan nan nan nan nan nan nan nan nan nan nan nan nan nan nan nan nan nan nan nan nan nan nan nan nan nan nan nan nan nan nan nan nan nan nan nan nan nan nan nan nan nan nan nan nan nan nan nan nan nan nan nan nan nan nan nan nan nan nan nan nan nan nan nan nan nan nan nan nan nan nan nan nan nan nan nan nan nan nan
nan nan nan nan nan nan nan nan nan nan nan nan nan nan nan nan nan nan nan nan nan nan nan nan nan nan nan nan nan nan nan nan nan nan nan nan nan nan nan nan nan nan nan nan nan nan nan nan nan nan nan nan nan nan nan nan nan nan nan nan nan nan nan nan nan nan nan nan nan nan nan nan nan nan nan nan nan nan nan nan nan nan nan nan nan nan
nan nan nan nan nan nan nan nan nan nan nan nan nan nan nan nan nan nan nan nan nan nan nan nan nan nan nan nan nan nan nan nan nan nan nan nan -0 -0 nan nan nan nan nan nan nan nan nan nan nan nan nan nan nan nan nan nan nan nan nan nan nan nan nan nan nan nan nan nan nan nan nan nan nan nan nan nan nan nan nan nan nan nan nan nan nan nan
nan nan nan nan nan nan nan nan nan nan nan nan nan nan nan nan nan nan nan nan nan nan nan nan nan nan nan nan nan nan nan nan nan nan nan nan nan nan nan nan nan nan nan nan nan nan nan nan nan nan nan nan nan nan nan nan nan nan nan nan nan nan nan nan nan nan nan nan nan nan nan nan nan nan nan nan nan nan nan nan nan nan nan nan nan nan
nan nan nan nan nan nan nan nan nan nan nan nan nan nan nan nan nan nan nan nan nan nan nan nan nan nan nan nan nan nan nan nan nan nan nan nan nan nan nan nan nan nan nan nan nan nan nan nan nan nan nan nan nan nan nan nan nan nan nan nan nan nan nan nan nan nan nan nan nan nan nan nan nan nan nan nan nan nan nan nan nan nan nan nan nan nan
nan nan nan nan nan nan nan nan nan nan nan nan nan nan nan nan nan nan nan nan nan nan nan nan nan nan nan nan nan nan nan nan nan nan nan nan nan nan nan nan nan nan nan nan nan nan nan nan nan nan nan nan nan nan nan nan nan nan nan nan nan nan nan nan nan nan nan nan nan nan nan nan nan nan nan nan nan nan nan nan nan nan nan nan nan nan
nan nan nan nan nan nan nan nan nan nan nan nan nan nan nan nan nan nan nan nan nan nan nan nan nan nan nan nan nan nan nan nan nan nan nan nan nan nan nan nan nan -0 nan nan nan nan nan nan nan nan nan nan nan nan nan nan nan nan nan nan nan nan nan nan nan nan nan nan nan nan nan nan nan nan nan nan nan nan nan nan nan nan nan nan nan nan
nan nan nan nan nan nan nan nan nan nan nan nan nan nan nan nan nan nan nan nan nan nan nan nan nan nan nan nan nan nan nan nan nan nan nan nan nan nan nan nan nan -0 -0 nan nan nan nan nan nan -0 -0 nan nan nan nan nan nan nan nan nan nan nan nan nan nan nan nan nan nan nan nan nan nan nan nan nan nan nan nan nan nan nan nan nan nan nan
nan nan nan nan nan nan nan nan nan nan nan nan nan nan nan nan nan nan nan nan nan nan nan nan nan nan nan nan nan nan nan nan nan nan nan nan nan nan nan nan nan nan nan nan nan nan nan nan nan nan -0 -0 -0 -0 nan nan nan nan nan nan nan nan nan nan nan nan nan nan nan nan nan nan nan nan nan nan nan nan nan nan nan nan nan nan nan nan
Wind_Speed
2 3 3 4 4 3 2 3 3 3 2 2 2 2 2 3 3 3 3 4 4 4 3 3 3 4 4 2 2 5 6 6 6 7 7 7 7 7 8 8 8 8 8 8 8 8 8 8 8 8 8 8 8 8 8 8 8 8 8 8 8 8 8 7 7 7 7 7 7 7 7 7 7 7 6 6 6 6 6 6 6 6 7 7 7 8
2 3 3 4 4 3 2 3 3 3 3 2 2 2 2 2 2 2 3 3 4 4 3 3 3 4 4 4 1 4 6 6 6 6 6 6 6 6 7 7 7 7 7 7 7 8 8 8 8 8 8 8 7 7 7 7 7 7 8 8 8 7 7 7 7 7 7 7 7 7 7 7 7 6 6 6 6 5 6 6 6 6 7 7 7 8
3 3 3 3 3 3 2 2 2 2 2 2 2 2 2 2 2 2 2 3 3 4 4 3 3 4 4 5 2 3 5 6 6 6 6 6 6 6 6 6 6 6 7 7 7 7 7 7 7 7 7 7 7 7 7 7 7 7 7 7 7 7 7 7 7 7 6 6 6 6 6 6 6 6 6 6 5 5 5 6 6 6 6 7 7 8
3 3 3 2 2 2 2 2 2 2 3 2 2 2 3 2 2 2 2 2 2 3 4 4 4 4 4 4 3 1 5 6 6 6 5 5 5 5 5 5 6 6 6 6 6 6 6 7 7 7 6 6 6 6 6 6 6 6 6 6 6 6 6 6 6 6 6 5 5 5 5 5 5 5 5 5 5 5 5 6 6 6 6 7 7 7
3 3 3 2 2 2 2 2 2 2 2 3 2 2 3 2 2 2 2 2 3 3 3 4 4 4 3 4 4 3 4 6 6 5 5 5 5 5 5 5 5 5 6 6 6 6 6 6 6 6 6 6 5 5 6 6 6 6 6 6 6 6 6 5 5 5 5 5 5 5 5 5 5 5 5 5 5 5 6 6 6 6 6 7 7 7
3 2 2 2 2 1 1 1 2 2 2 2 2 3 2 2 2 2 2 2 3 3 2 3 3 3 4 4 5 5 4 6 6 6 5 5 5 5 4 5 5 5 5 5 5 5 5 5 5 5 5 5 5 5 5 5 6 6 6 6 5 5 5 5 5 5 4 4 4 4 4 4 4 4 4 5 5 5 5 6 6 6 7 7 7 7
2 2 2 1 1 1 1 1 1 1 1 2 2 2 2 2 2 3 2 2 2 2 2 2 2 3 4 5 6 6 5 6 7 7 7 6 6 5 5 5 5 5 5 5 4 4 5 5 5 5 5 5 5 5 5 5 5 5 5 5 5 5 4 4 4 4 4 4 4 4 4 4 4 4 4 4 4 5 5 6 6 6 7 7 7 7
3 2 1 1 1 1 1 1 1 1 1 2 2 2 2 2 2 3 3 3 3 2 2 2 2 3 4 5 5 5 5 5 6 6 6 6 6 6 5 5 5 5 4 4 4 4 4 4 4 4 4 4 4 4 5 5 5 5 5 5 4 4 4 4 4 4 4 4 4 4 4 4 4 4 4 4 4 4 5 5 6 6 6 6 6 6
4 3 2 1 2 2 1 1 1 1 1 1 2 2 2 1 1 2 2 3 3 3 2 2 2 3 3 4 4 4 4 4 4 4 5 4 4 5 5 5 5 5 4 4 4 4 4 4 4 4 4 4 4 4 4 4 4 4 4 4 4 4 4 4 4 4 4 4 4 4 4 4 4 4 4 4 4 4 4 5 5 6 6 6 6 6
4 4 3 2 1 1 2 1 1 1 1 1 2 2 2 2 2 1 1 2 2 2 2 2 2 2 3 3 4 4 4 4 4 5 6 5 5 5 5 6 5 5 4 4 4 4 4 4 4 4 4 3 3 4 4 4 4 4 4 4 4 4 4 4 4 4 3 3 3 3 3 3 3 4 4 4 4 4 4 4 5 5 5 6 6 6
3 3 3 2 1 1 1 1 1 0 1 2 2 2 2 2 2 3 3 1 1 2 2 2 2 1 2 3 3 4 4 4 4 5 7 7 7 7 6 6 6 6 6 5 5 5 5 4 4 4 4 4 3 3 3 3 3 4 4 4 4 4 5 4 4 4 4 4 3 3 3 3 3 3 3 3 3 3 4 4 4 4 5 5 5 6
3 2 2 2 1 1 1 1 1 1 1 2 2 1 1 1 1 2 4 3 1 0 1 2 1 1 1 2 2 3 3 2 2 3 4 5 6 6 5 5 6 6 6 6 6 6 6 6 5 5 5 4 4 3 3 3 3 4 4 4 4 4 4 4 4 4 4 4 4 4 3 3 3 3 3 3 3 3 3 3 4 4 4 4 5 5
2 2 2 2 2 2 2 2 1 1 1 2 2 3 2 1 1 2 2 2 1 1 1 1 1 1 1 0 1 2 2 2 1 2 2 3 4 4 3 3 3 4 4 4 4 5 6 6 6 6 6 5 5 4 4 4 4 4 4 4 4 4 4 4 4 4 4 4 4 4 4 4 3 3 3 2 3 3 3 3 3 3 4 4 5 5
2 2 2 2 2 2 2 2 3 3 3 2 2 2 2 1 1 2 2 2 1 1 1 1 1 2 2 1 1 1 1 1 1 2 2 2 2 3 3 2 2 2 3 2 3 3 5 5 5 5 6 5 5 4 4 4 4 4 4 4 4 4 4 4 4 4 4 4 4 4 4 4 4 3 3 2 2 2 3 3 3 3 3 4 4 5
4 3 3 3 3 2 2 3 3 4 3 2 1 1 2 1 1 2 2 2 1 1 1 2 2 2 3 1 1 1 1 1 2 2 2 2 2 2 2 2 2 2 2 2 2 2 4 3 3 3 4 5 4 4 4 4 4 4 4 4 3 4 4 4 4 4 4 4 4 4 4 4 4 3 3 2 2 2 2 2 3 3 3 3 4 4
4 4 4 4 4 3 2 2 3 3 2 2 2 2 2 2 2 2 3 3 2 1 2 2 2 2 3 2 1 1 1 2 2 1 1 2 2 2 2 2 2 2 2 2 2 2 3 2 2 3 3 5 5 5 5 4 4 3 3 3 3 3 4 4 4 4 4 4 4 4 4 4 4 4 3 3 3 2 2 2 3 3 3 3 3 4
3 3 4 4 4 3 2 2 2 2 2 2 1 2 2 2 2 3 3 3 2 2 2 2 2 0 2 2 2 1 1 2 2 2 1 1 2 2 2 2 1 2 2 2 2 2 2 2 3 3 3 5 6 6 5 4 3 3 2 2 3 3 3 3 4 4 3 3 3 3 3 4 4 4 4 4 3 3 3 3 3 3 3 3 3 3
3 3 3 4 3 3 2 2 2 2 2 2 2 2 2 1 2 2 2 3 3 3 2 2 2 2 1 1 2 1 1 2 2 2 2 1 2 2 2 1 1 1 2 2 2 2 2 2 2 3 4 6 6 6 5 4 3 2 2 2 2 3 3 3 3 3 3 3 3 3 3 3 3 3 4 4 4 4 3 3 3 3 3 3 3 3
3 3 3 3 3 3 2 2 2 3 3 3 3 2 2 1 1 2 2 2 3 3 3 3 2 2 2 2 2 1 0 2 3 3 1 1 2 2 3 2 1 1 1 2 2 2 2 2 3 5 7 7 7 6 4 3 2 2 2 2 2 2 2 2 3 3 3 3 2 2 2 2 2 3 3 3 4 4 4 4 4 4 4 4 4 4
3 3 3 3 3 3 2 3 3 4 4 4 4 4 3 2 2 2 1 2 2 2 2 2 2 2 2 2 2 2 0 2 3 3 1 1 2 3 3 2 2 2 2 2 2 2 2 2 3 5 7 7 6 5 3 2 1 2 2 2 2 2 2 2 3 3 3 3 3 3 2 2 2 2 2 3 3 3 4 4 4 4 4 4 4 4
4 3 3 3 4 4 3 4 4 4 5 5 5 4 3 3 2 2 1 1 1 2 2 2 2 2 2 2 1 1 1 2 3 3 1 1 2 2 2 1 2 1 2 3 2 2 2 2 3 4 5 6 6 4 2 1 1 1 1 1 1 1 1 2 2 3 3 3 3 3 3 3 3 3 3 3 3 3 4 4 4 4 4 4 4 4
4 4 4 4 4 4 4 4 4 5 6 6 6 5 4 4 3 3 2 2 2 3 3 2 2 2 1 1 1 1 1 1 2 3 2 1 2 2 1 1 1 1 1 2 2 2 2 2 3 4 6 7 5 3 1 1 1 1 1 1 0 0 1 1 2 2 3 3 2 3 3 3 3 3 3 3 3 4 4 4 4 4 4 4 4 4
4 4 4 4 3 2 3 4 4 4 4 4 5 4 4 4 4 4 4 4 3 3 2 1 1 0 1 0 1 1 1 0 2 3 3 1 2 3 2 1 1 1 2 2 2 3 3 3 3 3 5 6 5 2 1 1 2 2 2 1 1 1 1 2 2 2 2 2 2 2 2 2 3 3 3 3 4 4 5 5 4 4 4 4 4 4
3 4 4 3 3 2 3 4 4 3 3 3 3 3 3 3 3 3 3 3 3 3 2 1 1 2 1 1 1 1 1 0 1 2 3 2 2 2 1 1 1 1 2 2 2 2 3 3 2 3 4 6 5 4 3 3 3 3 3 3 2 2 2 2 2 2 2 2 2 2 2 2 2 3 3 3 3 4 4 5 5 5 5 5 4 4
3 3 3 3 3 4 4 5 5 5 4 4 4 4 4 5 5 5 4 3 3 3 3 3 2 2 2 2 2 2 1 0 1 2 2 2 2 2 1 0 0 0 2 2 2 2 2 2 2 3 3 5 6 6 5 5 5 4 4 4 3 3 2 2 2 2 2 2 2 2 2 3 3 3 3 3 3 3 4 4 5 5 5 5 5 5
5 6 6 6 7 8 9 9 9 9 8 6 5 5 5 5 5 5 4 3 3 3 4 3 1 1 2 2 2 2 1 0 0 1 2 2 1 1 1 0 0 0 2 2 2 2 1 2 2 3 3 4 5 7 7 6 6 6 5 5 4 3 3 2 2 2 2 2 2 3 3 3 3 3 3 3 3 3 3 4 4 5 5 5 5 5
11 11 11 11 11 12 12 12 13 12 12 10 9 7 6 5 5 4 3 1 2 3 4 2 1 1 2 2 2 2 2 1 0 1 2 2 1 0 1 0 0 0 2 2 2 2 1 1 2 3 3 3 4 6 7 7 7 7 6 6 5 4 3 3 3 3 3 3 3 3 3 3 3 3 3 3 3 3 3 4 4 4 4 4 3 3
13 12 12 12 12 13 13 13 13 13 13 12 12 10 7 5 4 4 3 2 2 3 3 2 2 1 1 2 2 2 2 1 1 1 2 2 1 1 1 0 0 0 1 2 2 2 1 1 1 2 3 3 3 4 6 7 8 8 8 7 6 5 4 4 4 4 4 4 4 4 4 4 4 4 4 4 3 3 3 4 4 3 3 2 2 3
10 11 11 11 10 10 9 9 10 11 12 12 11 9 6 4 4 4 4 3 3 3 3 2 2 2 1 1 2 2 2 2 2 2 2 2 1 1 1 0 0 0 0 1 2 2 2 1 1 2 2 3 3 3 4 5 6 7 7 8 7 6 6 5 5 5 4 4 4 4 4 4 4 4 4 4 4 4 3 4 3 2 2 2 2 2
6 7 8 9 8 7 6 5 5 6 8 10 9 7 4 3 3 4 4 4 4 4 3 2 2 2 1 1 1 2 2 2 2 2 3 2 1 1 0 0 1 0 1 1 2 2 2 2 2 1 1 2 3 3 2 3 3 4 5 6 6 6 6 6 6 6 5 5 5 5 5 4 5 4 4 4 4 4 4 3 2 1 2 2 2 1
5 6 6 6 6 6 5 5 5 4 4 5 5 5 4 3 3 4 4 4 4 4 4 3 3 2 2 2 1 0 2 2 2 2 3 3 2 1 1 1 0 1 0 2 2 1 1 2 2 2 1 2 2 2 2 2 2 2 3 3 4 5 6 6 6 6 6 5 5 5 5 5 4 4 4 4 4 4 4 4 2 0 2 2 1 1
3 4 3 3 3 4 4 4 4 4 4 4 4 4 3 3 3 4 4 4 4 4 4 3 3 3 2 2 2 2 2 2 2 2 3 3 2 1 1 1 1 1 1 1 2 2 1 2 2 2 2 2 2 2 2 1 1 2 2 2 2 3 5 6 6 6 6 6 6 6 5 5 5 4 4 4 4 4 4 4 3 1 2 2 2 1
3 3 3 3 3 3 3 3 3 3 3 3 2 2 2 2 2 3 3 3 4 4 4 4 3 3 2 2 2 2 2 3 3 4 4 3 2 1 1 2 2 1 1 1 1 2 2 1 2 2 2 2 2 2 2 1 1 1 2 2 2 2 4 4 5 4 4 5 5 5 6 6 6 5 5 4 4 4 4 4 4 2 0 2 2 2
3 3 3 3 3 3 3 3 3 3 2 2 1 1 1 1 1 2 3 3 3 3 4 4 4 3 3 2 1 2 3 3 3 4 5 3 2 2 1 2 2 2 1 1 1 1 1 0 1 1 2 2 2 2 2 2 1 1 1 1 1 2 3 3 3 3 3 3 3 4 4 5 5 6 5 5 5 4 4 4 4 4 3 1 2 2
3 3 3 3 3 2 2 2 2 2 1 1 0 0 1 1 1 2 2 2 2 3 3 4 4 4 4 3 2 2 3 3 4 5 5 3 3 2 2 2 2 2 2 1 1 1 0 1 1 1 1 2 2 2 2 2 1 1 1 1 1 2 2 1 2 2 2 2 2 2 3 3 3 4 4 5 5 5 5 5 5 5 5 4 2 1
2 2 2 2 2 1 1 1 1 1 1 1 1 1 1 1 1 2 2 2 2 2 2 2 3 3 4 4 4 3 3 3 4 5 5 4 3 3 2 2 2 3 3 2 2 1 1 0 1 1 1 1 2 2 2 2 2 2 2 1 2 2 1 1 1 1 1 2 2 2 2 2 2 3 3 5 6 6 6 6 6 5 5 5 4 3
2 1 1 1 1 0 0 0 1 1 2 1 1 1 1 1 1 1 1 1 1 1 1 1 1 1 2 3 3 3 3 2 2 3 4 4 3 3 3 2 3 3 3 3 2 2 2 1 1 1 0 1 2 2 2 2 2 2 2 2 2 1 1 1 0 0 1 1 2 2 2 2 2 2 3 5 6 6 6 6 6 6 5 6 6 5
1 0 0 0 0 1 1 1 1 2 2 1 1 0 1 1 1 1 1 1 1 1 1 1 1 1 1 1 1 1 1 1 2 3 4 3 3 3 3 2 2 2 3 3 3 3 3 1 0 1 1 2 2 2 2 2 2 2 2 2 2 2 1 1 1 1 1 1 2 2 2 1 1 2 3 4 4 4 4 4 5 5 5 5 6 6
1 1 1 1 2 2 2 2 2 2 1 1 1 1 1 1 1 1 1 1 1 1 1 1 1 1 1 1 1 1 1 1 2 2 3 3 3 3 3 3 2 2 2 2 3 3 3 2 2 2 1 2 2 2 1 1 1 2 3 3 2 2 2 1 1 1 1 1 2 2 2 2 1 2 2 2 2 2 2 3 3 3 3 3 4 5
2 2 2 2 2 2 2 2 1 1 1 1 1 1 1 1 1 2 2 1 1 1 1 1 2 1 1 1 1 1 1 1 1 2 2 2 2 2 3 3 3 3 2 2 2 3 3 3 3 3 2 2 1 1 1 1 1 1 2 2 2 2 2 1 1 1 1 1 1 1 2 2 2 1 2 1 1 1 1 2 2 2 1 1 1 2
2 2 2 2 2 2 2 0 0 1 1 1 1 1 1 1 1 1 1 1 1 1 1 2 2 2 2 1 1 1 1 0 1 1 1 2 2 2 3 3 3 3 3 2 2 2 3 3 3 2 2 2 1 2 2 2 2 2 3 2 2 3 3 2 1 0 0 0 1 1 2 2 2 2 2 2 2 2 2 2 2 2 2 1 1 1
3 2 2 1 1 1 0 1 1 1 1 1 1 1 1 1 1 1 1 1 1 1 2 2 2 2 2 2 2 2 1 1 1 1 1 2 2 2 2 3 3 3 3 3 2 2 2 3 3 3 3 2 1 2 3 2 2 2 3 2 2 3 4 4 2 0 0 1 1 2 2 2 2 2 3 3 3 3 3 3 3 4 3 2 2 2
3 2 1 1 0 0 0 1 1 1 1 1 1 1 1 0 1 1 2 2 1 1 1 2 2 2 1 1 2 3 2 2 1 1 1 2 2 2 2 3 3 3 4 3 2 2 2 3 3 3 3 2 2 2 4 3 3 2 2 2 1 1 2 2 2 1 1 1 2 2 2 2 2 2 3 3 3 3 3 4 5 5 5 3 3 3
1 1 1 1 1 1 1 1 1 1 1 1 1 1 1 1 0 1 2 2 2 1 1 1 2 2 2 1 2 3 3 3 2 2 1 2 3 3 3 3 3 3 4 3 3 2 2 3 3 3 2 2 2 3 4 3 3 2 2 2 2 2 2 2 2 1 1 2 2 2 2 2 2 2 2 2 3 2 2 2 3 3 4 3 3 3
1 1 1 1 1 1 1 1 1 1 1 1 1 0 1 1 1 1 2 2 2 1 1 1 2 2 1 0 1 2 2 3 3 2 1 1 2 4 4 3 3 3 3 3 3 3 3 2 2 2 2 2 3 3 4 4 4 3 3 3 3 4 4 3 3 2 3 3 3 2 1 1 0 1 2 2 2 2 2 3 3 3 3 3 3 3
1 1 1 1 1 1 1 1 1 1 1 1 1 0 1 1 1 1 2 2 2 2 1 1 2 2 1 1 1 1 1 2 2 2 2 2 1 1 2 3 3 3 3 3 3 3 3 3 3 2 2 2 3 4 5 4 4 4 3 3 3 3 3 3 3 3 3 3 3 3 1 0 0 0 2 2 3 3 3 3 3 4 4 3 3 3
2 2 2 1 1 1 1 1 1 1 1 0 0 0 0 0 1 1 2 2 2 2 1 2 2 2 2 1 1 1 0 1 1 2 2 2 1 0 1 2 3 4 4 4 3 3 3 3 3 3 2 2 3 4 4 4 4 4 3 3 2 2 3 3 3 3 3 3 3 2 0 1 1 1 2 2 3 3 3 3 3 4 4 4 4 4
3 3 2 2 2 1 1 1 1 1 1 0 0 0 0 0 1 1 2 2 2 2 2 2 2 1 2 1 2 2 2 1 1 1 2 1 1 1 1 2 2 3 4 4 4 4 4 3 3 3 3 3 3 4 4 4 4 4 3 3 3 3 4 4 3 2 2 3 2 2 1 1 1 2 2 2 3 3 3 3 3 4 4 4 4 4
3 3 3 3 2 2 1 1 1 1 2 1 1 0 0 1 1 1 2 2 2 2 3 2 2 2 2 2 2 2 2 2 1 1 1 1 1 1 1 2 2 2 2 2 3 3 3 4 5 5 5 5 5 5 4 4 3 3 3 3 3 3 4 4 3 3 2 3 2 2 2 2 2 2 2 2 3 4 3 3 4 4 4 4 3 4
2 2 3 3 3 2 2 2 2 2 3 2 2 1 1 0 0 1 1 2 2 2 3 3 3 3 3 2 2 2 3 2 2 1 2 1 1 1 1 2 2 2 2 1 1 2 2 3 5 7 9 9 9 7 6 5 3 3 3 4 3 3 4 4 3 3 3 3 2 2 2 2 2 2 2 2 3 4 4 3 3 3 3 3 2 3
2 2 3 3 3 3 3 3 3 3 3 3 3 2 1 1 1 1 1 1 2 2 2 3 3 3 3 3 3 3 4 3 2 2 2 2 1 2 2 2 2 2 2 1 1 1 1 2 3 4 7 11 13 12 7 5 4 3 4 3 3 3 3 3 3 3 3 3 3 2 2 2 2 2 2 2 2 3 4 3 3 3 3 2 2 2
Wind_Direction
120 127 129 137 137 137 144 142 137 132 127 110 92 72 53 52 46 40 38 41 43 43 43 29 16 8 5 16 95 121 123 119 115 109 102 94 88 82 77 72 66 61 55 50 45 41 36 33 29 27 24 22 20 18 17 14 13 10 7 5 4 2 2 2 3 5 8 12 15 18 20 22 23 22 19 13 8 4 1 1 1 360 358 355 351 346
122 123 129 138 139 137 138 135 131 129 130 116 99 74 54 52 43 33 28 34 40 43 41 28 18 13 8 354 45 126 128 123 118 112 104 96 89 81 74 67 61 54 47 42 37 33 30 26 23 21 18 17 16 15 14 13 11 9 6 3 0 358 356 356 357 359 2 6 8 9 9 9 10 9 5 2 360 359 359 359 358 356 354 351 347 343
139 135 141 140 138 134 130 128 113 96 98 95 83 66 64 64 54 38 27 29 35 41 42 32 24 18 14 354 22 129 131 125 120 114 105 97 87 78 69 60 52 44 38 33 29 26 23 21 18 16 13 12 11 11 12 12 10 8 5 2 358 355 353 352 351 353 355 358 360 360 359 359 357 356 353 352 352 352 354 355 353 350 347 345 341 338
145 145 148 137 124 114 108 110 97 80 75 78 71 62 63 66 57 39 25 29 36 39 39 33 29 23 16 359 2 88 127 123 117 111 103 94 83 72 61 51 43 35 29 25 22 20 19 17 15 12 10 9 9 10 12 12 11 9 5 1 357 354 350 348 346 345 346 348 348 348 348 347 345 344 345 345 345 345 345 345 344 342 340 338 336 334
148 146 145 132 114 96 80 87 90 90 85 79 69 58 54 55 46 33 25 32 40 41 36 32 29 27 19 3 2 29 105 112 108 101 94 85 75 64 53 43 33 26 20 18 16 16 16 15 13 11 9 9 10 12 15 14 12 9 5 1 357 352 348 345 341 340 338 339 338 338 338 337 337 338 340 340 340 339 337 337 336 334 334 333 332 330
146 140 134 123 113 102 89 89 100 107 99 82 66 56 51 45 38 32 29 34 36 37 33 30 30 28 23 11 11 25 69 91 90 82 77 71 64 55 44 34 25 18 12 11 11 13 15 14 12 11 10 11 15 18 21 19 15 11 6 2 357 353 348 344 341 337 336 335 334 333 333 333 333 334 336 337 337 336 334 333 332 331 330 330 329 328
137 120 106 94 90 92 95 94 106 118 119 102 79 60 47 42 38 37 35 32 28 26 23 23 25 27 26 17 15 22 47 64 66 62 59 56 51 44 36 27 17 10 6 6 8 12 14 13 11 10 12 17 22 26 28 24 20 15 10 5 1 356 352 347 344 340 339 337 335 334 332 332 332 332 333 334 334 334 334 332 331 330 329 328 328 327
139 126 103 99 95 90 87 81 66 66 100 116 110 89 56 43 35 31 27 26 24 23 21 17 17 18 19 14 12 17 36 54 56 53 50 47 42 37 31 23 14 6 1 3 8 12 13 11 9 10 14 22 30 34 35 30 26 21 15 11 7 3 358 354 350 347 344 341 339 336 334 332 331 330 330 332 334 335 335 333 331 329 327 327 327 326
146 145 137 126 122 119 114 95 38 17 40 100 117 121 111 87 50 28 24 22 19 20 28 29 21 11 1 2 4 10 23 50 62 60 52 48 42 36 33 25 16 6 0 5 10 14 13 9 7 10 16 27 37 43 42 35 29 22 16 13 10 7 3 359 356 353 350 346 341 338 335 332 330 329 329 330 332 333 334 333 330 328 327 328 328 326
145 145 139 121 109 114 123 120 82 8 21 68 93 108 122 120 113 96 70 26 11 12 30 40 36 13 349 351 357 4 12 32 50 57 50 42 42 43 40 31 22 13 11 15 18 18 14 10 8 10 17 27 38 45 44 35 25 16 10 7 5 3 1 359 357 355 353 348 344 340 336 332 330 327 326 327 328 329 330 330 329 328 329 330 329 327
139 137 126 111 82 65 88 108 111 68 53 70 68 66 70 94 119 132 139 140 17 6 20 32 36 24 357 348 351 357 5 17 27 32 31 29 31 32 30 28 24 21 20 22 24 23 21 17 16 16 18 23 29 35 36 25 11 2 356 355 355 355 354 352 351 350 348 346 344 342 337 334 329 327 324 324 325 326 327 328 329 331 333 334 331 327
138 133 118 117 106 89 76 77 72 67 70 86 90 88 55 34 96 132 145 152 148 75 17 11 14 19 16 345 341 346 359 13 12 6 7 15 17 15 14 16 17 17 17 19 22 24 25 25 23 21 21 19 17 15 16 4 350 341 338 340 343 345 346 344 343 341 340 339 338 337 335 333 329 326 326 328 329 329 329 331 333 336 338 336 331 327
129 123 115 114 117 120 119 110 103 102 120 138 152 161 175 175 116 111 121 129 125 95 29 6 354 341 321 324 337 345 359 11 6 357 2 9 8 4 355 358 1 3 5 8 12 15 20 21 19 18 18 13 6 359 351 337 327 322 322 327 333 337 340 338 335 332 329 328 327 327 326 325 325 327 331 334 336 336 334 336 337 339 342 338 332 328
131 125 122 126 133 139 145 145 150 160 172 172 167 159 154 140 114 98 95 84 55 15 29 42 12 337 320 326 340 1 14 30 22 13 14 9 1 354 342 343 345 350 359 3 359 359 5 11 10 7 7 3 356 346 330 317 312 312 314 322 328 334 337 334 330 325 321 318 316 315 316 316 318 321 326 330 332 331 331 333 334 337 340 336 332 329
151 149 150 155 160 163 164 163 166 168 169 156 135 114 96 90 90 96 100 104 89 24 33 39 16 347 324 317 330 11 38 61 53 36 14 348 342 344 346 342 342 350 5 9 347 337 349 2 0 350 346 342 333 321 309 298 300 307 312 321 328 332 335 331 327 321 316 311 308 305 304 306 307 309 311 312 313 315 318 321 323 325 328 329 328 326
160 160 163 166 170 173 174 166 161 156 143 130 121 119 120 122 115 109 112 121 117 85 69 64 34 349 321 315 334 47 57 77 78 69 21 329 328 342 2 3 357 352 354 354 329 317 331 344 344 336 328 323 319 315 312 303 304 311 316 324 330 334 337 332 326 319 312 306 302 299 297 297 297 298 298 296 295 296 299 301 303 306 309 314 315 315
161 163 163 163 169 174 172 143 133 131 131 129 122 119 122 129 124 116 113 117 109 96 96 109 113 101 298 306 319 1 73 93 96 89 56 327 320 333 5 25 20 355 336 328 313 307 324 333 333 325 315 314 315 316 313 312 313 318 325 332 336 340 340 336 328 321 312 304 298 294 292 290 290 290 291 291 288 286 284 285 286 289 292 296 299 303
160 162 157 160 166 170 161 141 127 123 128 124 117 101 84 93 103 109 111 114 116 117 121 125 140 159 191 263 281 289 83 112 105 91 57 333 313 321 356 27 37 4 327 313 302 300 316 320 319 316 315 317 317 316 313 313 319 330 342 348 350 349 348 339 331 323 316 310 304 298 294 289 288 288 289 290 289 286 282 280 279 280 282 283 285 288
168 164 158 161 162 162 160 161 156 152 148 148 138 122 95 87 88 96 104 114 125 133 138 142 156 174 180 214 245 267 104 113 102 90 65 313 303 317 348 5 16 7 335 305 297 299 314 309 311 315 320 320 317 314 312 317 335 0 10 9 6 0 354 339 330 324 324 326 325 322 312 304 299 295 292 293 293 291 288 284 281 280 281 279 278 278
171 173 170 158 150 150 167 182 179 169 161 153 139 126 119 115 101 89 92 100 113 126 134 145 166 190 203 224 249 279 337 87 89 87 86 290 293 309 343 3 15 9 334 301 293 301 323 314 314 317 320 318 314 311 311 334 9 29 33 26 18 7 349 332 324 322 328 337 339 338 335 331 325 317 311 304 300 296 292 289 288 289 289 287 283 279
173 192 198 168 153 155 177 189 185 172 157 138 125 117 122 119 115 113 114 112 111 114 119 144 173 195 197 204 233 278 330 92 99 100 93 318 304 308 336 10 30 19 328 298 296 308 324 316 313 315 318 315 312 310 316 12 49 51 50 41 26 1 328 315 315 318 326 333 337 336 335 335 334 332 329 320 312 305 300 299 302 305 307 305 301 296
173 190 196 179 167 164 170 169 168 163 151 138 135 138 143 142 147 154 160 147 143 145 153 175 190 195 175 190 234 280 315 110 120 121 103 17 310 300 319 8 41 27 303 291 298 311 321 317 315 316 321 318 314 309 322 49 64 60 48 52 22 311 303 298 306 315 323 326 328 326 325 324 324 323 321 319 316 311 308 309 312 315 320 319 318 318
162 170 171 177 174 160 143 140 144 146 142 137 142 150 157 156 159 164 168 160 155 151 155 164 151 110 109 235 275 297 318 110 121 118 109 139 267 278 306 349 27 1 282 287 299 314 320 318 317 321 326 328 327 328 52 65 54 35 22 9 353 336 323 320 320 322 326 328 327 324 319 315 311 308 307 306 306 305 307 306 308 310 313 317 321 323
138 144 149 161 161 142 119 124 125 122 105 98 99 104 106 111 116 122 129 130 129 126 121 98 61 35 13 357 344 341 339 37 99 108 115 169 231 258 297 357 21 334 284 286 299 314 322 320 319 323 333 344 355 18 49 52 41 27 15 4 355 347 336 330 328 329 333 334 334 331 327 319 311 304 299 293 292 293 294 295 297 299 301 306 311 314
116 123 132 144 146 141 131 130 129 125 113 103 98 96 93 91 89 88 85 84 87 88 83 73 55 17 345 348 341 328 312 1 97 117 125 165 227 263 292 1 43 289 279 289 303 322 334 327 323 326 337 354 7 22 39 42 36 26 15 6 358 350 343 340 338 338 342 344 344 342 339 333 325 317 307 299 292 288 285 288 290 291 293 296 301 306
110 117 127 134 136 135 132 132 132 130 127 121 118 114 110 103 96 87 74 69 73 79 79 72 55 329 317 327 315 297 287 311 113 129 132 142 183 270 291 321 91 273 284 298 310 330 347 335 327 326 335 346 0 12 28 34 33 26 19 10 2 355 350 351 354 359 0 359 357 353 349 342 336 329 321 314 305 297 292 289 287 287 288 291 298 310
110 116 122 126 128 128 128 128 129 130 129 128 128 127 122 112 102 96 93 103 103 100 101 108 133 285 312 308 290 280 283 286 215 158 138 123 132 226 276 308 36 316 299 304 307 313 333 326 320 319 322 324 336 354 18 26 29 27 22 14 8 4 3 6 11 13 11 8 3 357 352 346 341 336 330 324 317 311 305 299 296 294 296 300 312 335
112 118 121 123 124 124 125 127 130 131 132 132 133 132 126 114 114 128 166 168 134 111 112 130 153 194 250 260 271 280 291 273 237 191 147 114 120 210 260 316 43 12 310 313 311 313 329 311 300 300 305 309 321 341 5 18 25 26 22 17 13 11 12 14 15 14 11 7 1 356 351 346 342 337 333 327 322 317 312 309 308 312 324 353 26 33
109 116 114 108 105 105 111 118 128 134 138 139 139 136 126 118 130 153 178 160 133 117 123 142 154 164 188 249 291 306 300 268 228 180 143 115 124 232 263 11 29 20 24 3 354 347 341 314 293 289 297 309 321 335 346 5 15 20 17 13 13 14 16 16 14 11 5 1 356 352 347 344 341 338 334 329 323 319 314 310 312 329 18 46 54 47
66 75 71 59 55 57 60 64 90 120 136 140 139 134 119 116 130 145 153 141 132 128 140 148 153 151 145 60 358 333 296 274 231 168 140 131 148 224 255 46 24 13 53 61 42 9 330 310 300 293 299 316 323 329 328 347 359 7 7 5 7 10 15 16 14 9 2 359 355 350 347 344 341 339 335 330 326 320 314 307 312 15 89 90 84 59
39 44 39 29 27 30 38 39 40 48 76 101 106 104 98 105 118 130 136 139 137 137 144 151 155 154 142 116 111 236 270 269 237 167 138 136 150 174 148 113 69 12 29 92 95 79 304 301 303 310 326 327 325 321 319 333 353 1 356 354 357 2 9 11 10 7 2 360 357 354 352 349 345 341 338 333 328 322 315 307 308 86 119 124 125 133
48 49 42 24 19 25 36 40 39 39 43 52 56 62 76 99 120 133 142 146 143 139 139 146 152 155 153 151 166 193 238 253 224 179 139 128 131 146 134 121 102 64 6 89 120 140 175 263 290 309 331 326 320 315 313 327 356 7 359 354 346 346 357 2 3 3 359 359 359 360 359 357 354 351 346 339 333 327 320 314 312 319 129 142 158 191
52 44 29 21 22 26 31 31 34 40 47 47 44 44 58 95 126 142 149 152 146 140 137 141 145 150 151 157 181 211 242 250 220 186 155 125 116 123 123 110 104 92 48 49 89 125 152 211 273 303 316 312 309 309 310 325 353 14 7 357 333 325 340 351 354 353 348 350 353 356 358 359 359 357 355 351 345 337 329 323 320 320 106 154 171 197
54 44 30 26 26 25 22 22 26 31 39 45 53 58 69 109 137 150 159 159 153 148 144 146 150 153 153 158 199 250 264 255 220 191 165 130 118 127 128 121 121 117 92 58 52 64 103 207 287 309 312 310 308 309 309 315 329 347 353 326 301 303 318 338 341 337 332 337 341 344 347 350 351 353 353 352 350 345 338 331 325 322 322 248 192 191
58 48 35 31 29 27 20 14 13 9 5 6 66 151 153 158 164 170 173 172 168 161 154 154 156 157 157 159 176 222 255 246 214 188 165 142 128 126 125 146 147 137 117 107 89 73 46 333 320 321 327 319 312 308 304 302 307 308 290 254 249 261 284 313 321 322 325 330 330 328 330 332 336 340 341 345 346 346 342 336 329 324 321 309 289 235
67 55 37 32 36 41 27 358 343 331 308 285 256 205 176 180 182 183 183 180 178 175 168 161 158 158 159 160 170 190 225 229 206 184 163 146 132 128 132 166 163 145 126 128 127 124 120 335 330 339 352 309 301 302 304 310 316 316 302 276 262 256 261 270 286 311 323 325 320 316 316 319 321 322 324 337 342 344 344 338 333 328 324 318 312 302
86 77 30 26 46 100 186 261 272 266 260 261 256 226 179 179 182 185 176 165 170 171 168 157 152 157 163 160 167 179 200 204 192 176 158 142 130 126 134 160 165 154 139 141 143 140 126 90 357 338 322 244 255 278 299 320 334 336 319 300 288 284 283 284 270 252 287 290 292 293 295 302 309 313 315 332 339 343 343 340 337 334 332 328 321 314
115 160 257 262 224 196 199 222 232 232 229 231 229 209 168 155 151 133 109 107 111 118 130 128 123 112 112 103 128 155 162 149 152 152 146 137 127 121 126 138 158 168 161 154 148 141 129 125 104 300 279 255 253 261 283 316 327 322 305 297 292 289 288 284 258 233 237 264 276 282 286 298 309 317 319 332 342 347 343 336 333 334 340 335 328 321
168 202 230 223 211 201 199 210 218 218 210 201 184 150 122 105 90 79 76 82 82 82 89 100 100 87 53 39 42 85 106 119 137 145 142 139 132 125 125 136 154 177 178 153 143 139 138 150 169 195 229 257 269 275 284 287 287 290 299 308 312 308 289 266 242 231 232 260 285 295 301 309 319 321 317 330 344 349 334 320 317 325 347 348 336 325
187 207 228 221 210 199 197 204 206 197 169 129 109 105 106 98 87 75 71 75 75 74 73 80 82 79 61 38 27 32 63 101 132 145 147 151 146 138 134 146 156 163 160 147 139 140 146 158 173 185 190 206 237 263 278 266 260 280 320 326 322 310 297 271 245 228 218 236 272 286 294 298 301 303 301 304 303 296 283 280 288 299 329 13 352 329
189 209 229 227 215 206 209 203 107 88 90 90 90 94 106 109 101 90 77 66 57 51 53 64 60 48 22 17 17 24 42 68 154 164 167 175 164 153 146 154 154 151 147 149 152 154 158 165 177 189 194 198 226 255 263 254 265 285 302 294 286 282 284 280 273 238 125 246 244 251 265 286 296 299 293 287 271 253 241 242 255 266 272 186 158 158
197 206 218 216 214 222 293 12 49 80 93 88 88 93 102 113 114 109 99 79 51 30 28 51 57 45 12 349 342 344 353 335 247 216 196 188 181 172 165 163 158 150 143 148 162 183 188 182 184 190 198 204 236 270 275 267 267 271 273 264 278 294 298 293 298 342 297 261 253 250 253 276 288 290 287 285 277 265 253 241 245 252 253 216 183 175
204 205 191 176 162 78 35 42 51 63 76 79 78 72 51 55 103 113 109 105 90 63 44 61 75 81 55 341 325 323 327 327 312 274 227 207 204 201 193 181 168 156 148 148 163 191 210 204 202 203 205 201 222 255 274 277 274 261 238 230 256 299 308 297 298 297 253 242 238 235 237 252 261 267 272 273 273 271 268 260 260 259 257 233 205 198
190 164 107 99 76 51 48 48 45 49 70 90 95 71 5 349 42 95 103 105 98 81 60 68 78 80 76 9 318 314 315 322 328 327 275 223 212 207 212 201 187 172 162 159 162 172 188 207 214 209 189 190 216 243 262 268 268 259 238 221 214 217 229 256 275 289 287 272 261 247 232 237 250 265 276 273 273 273 275 269 268 267 262 241 218 212
132 102 79 69 72 76 83 71 52 49 64 83 90 64 346 334 36 89 107 109 102 89 71 88 88 82 62 327 308 311 314 321 328 336 340 276 229 216 209 204 199 195 189 184 178 171 169 189 201 201 178 187 213 234 249 257 262 262 252 238 229 227 230 243 258 274 285 288 286 278 254 227 235 286 292 285 279 274 268 266 269 270 268 254 235 225
118 115 105 93 96 107 114 97 74 63 63 62 56 29 351 349 30 77 104 110 110 107 94 94 104 121 168 222 272 314 325 324 328 336 348 350 331 246 202 196 198 206 214 214 206 195 185 181 177 172 166 195 222 233 237 243 252 259 260 251 247 248 254 258 257 257 261 272 277 278 273 104 100 281 280 281 280 276 268 258 255 257 261 259 249 239
140 140 138 129 123 116 105 83 77 75 77 61 13 10 13 20 52 74 82 96 106 111 99 86 103 134 173 186 186 174 162 295 307 316 327 341 347 325 195 193 201 209 218 223 225 223 220 200 182 174 176 208 231 239 236 233 238 245 251 251 251 255 262 260 254 246 238 250 260 268 301 49 12 292 275 279 281 280 276 265 254 248 249 250 248 243
157 154 150 142 135 128 119 104 103 116 153 218 261 321 32 186 151 127 97 100 108 115 111 106 120 156 187 193 189 182 176 194 234 271 293 301 309 288 204 189 194 203 213 219 225 229 233 224 212 203 199 215 233 244 243 232 229 230 236 240 244 251 259 260 255 244 231 241 244 244 229 248 263 271 279 286 287 283 279 273 264 255 246 242 239 237
156 156 155 148 148 154 168 166 159 164 185 206 219 235 298 263 212 155 127 129 128 129 133 144 158 177 199 209 207 196 190 194 209 233 254 260 265 253 193 183 181 185 193 207 218 229 237 236 231 225 220 222 232 243 250 239 228 222 225 232 239 246 257 261 260 253 243 243 240 231 212 223 229 236 250 273 279 280 277 273 267 259 250 242 234 231
159 161 159 159 168 179 186 179 179 184 196 200 199 192 179 281 350 96 120 132 139 146 156 165 173 185 203 208 204 197 196 197 206 222 237 233 216 179 159 171 172 172 170 182 200 221 237 243 238 232 227 225 227 232 242 241 233 225 229 233 234 238 249 259 261 258 252 249 241 230 219 225 220 210 203 244 266 274 277 272 266 262 259 254 245 236
177 175 171 176 185 192 191 186 187 193 198 195 189 178 162 150 135 123 115 134 152 164 172 174 181 191 209 212 208 201 197 196 202 216 227 218 196 172 160 164 167 168 167 177 196 212 222 244 250 243 234 225 221 220 227 229 228 229 234 231 224 221 231 247 254 258 257 253 243 228 218 225 223 209 195 218 253 271 278 274 270 266 267 272 272 264